Back to catalog

COSMOS 2251 DEB

AliveLEO
NORAD 38479·DEBRIS·🇷🇺 Russia

Launched Jun 16, 1993 from Plesetsk Cosmodrome

Loading…

Next Passes (next 24 hours)

TLE

AgingSource: Space-Track

Epoch: Sep 10, 2026, 03:36 UTC

1 38479U 93036BTP 26253.15042501  .00002883  00000-0  87699-3 0  9991
2 38479  74.0119  42.0800 0083006  85.7156  89.2750 14.40543511685938

Track COSMOS 2251 DEB in real time with AllMySat

Download on the App Store